Location: Buch am Rannenberg
(48.6989°N, 10.6399°E)
Time: 18:57:11
(UTC+00:00)

CZ-4C R/B - Pass Details

Date: 07 June 2020
Orbit: 634 x 1368 km, 63.4° (Epoch: 10 July)

Event Time Altitude Azimuth Distance (km) Brightness Sun altitude
Exits shadow 01:16:43 - 262° (W) 2,860 4.6 -13.6°
Reaches altitude 10° 01:18:15 10° 269° (W) 2,352 4.2 -13.5°
Maximum altitude 01:23:07 33° 333° (NNW) 1,461 3.8 -13.1°
Drops below altitude 10° 01:28:54 10° 36° (NE) 2,800 6.4 -12.6°
Sets 01:32:05 0° 46° (NE) 3,887 7.4 -12.4°
